Dewpoint
68 68 68 68 68 68 69 68 67 68 69 69 69 68 68 69 69 70 69 69 67 68 68 68 67 67 66 68 69 69 67 65 63 64 66 68 68 69 70 70 70 70 70
67 69 68 68 68 69 69 68 67 68 67 66 66 65 68 69 69 70 69 69 67 67 67 68 68 68 68 68 67 67 68 68 65 64 66 67 67 70 70 69 69 70 70
67 68 68 68 68 68 69 69 69 68 68 67 65 64 68 69 69 70 69 69 69 68 69 68 68 68 68 68 67 67 68 67 68 66 65 67 67 69 69 69 69 69 69
68 68 68 68 68 68 69 68 69 69 67 66 67 69 70 70 70 70 70 69 70 70 69 69 69 69 68 68 68 68 68 66 67 66 66 67 68 69 68 68 67 68 67
68 68 67 68 68 68 68 69 69 69 69 69 69 70 69 68 67 68 69 70 69 69 67 66 66 66 66 68 68 68 68 67 67 67 67 67 66 64 65 67 66 67 67
67 67 68 68 68 68 68 68 69 69 69 69 68 67 66 65 62 63 64 69 68 66 65 63 62 63 63 65 65 67 68 67 67 67 65 61 62 64 64 64 64 64 64
66 67 68 68 67 67 68 68 67 68 67 65 64 62 61 60 56 58 62 67 67 66 64 59 57 60 63 63 55 52 54 56 61 62 59 60 61 63 63 62 60 62 54
65 66 67 67 66 66 66 66 67 68 65 62 60 59 58 58 59 59 63 67 66 64 59 55 57 59 59 56 49 51 54 55 56 59 57 56 57 59 61 61 59 58 61
65 66 66 66 66 66 64 63 62 62 59 58 56 56 58 59 62 64 64 61 57 53 50 49 51 54 54 48 48 53 55 54 54 53 50 49 50 50 51 49 49 49 52
67 67 66 66 65 64 62 60 57 55 53 51 50 51 52 57 61 62 61 55 51 47 47 48 50 50 51 49 52 53 52 51 49 47 47 47 46 46 48 48 50 46 48
66 66 65 65 65 63 61 59 56 55 54 54 54 52 52 53 58 57 57 55 52 47 46 48 51 51 51 52 53 53 51 49 47 47 46 44 43 44 43 45 48 46 44
64 64 64 65 65 64 61 58 55 52 49 43 39 39 40 44 49 55 55 53 47 45 48 50 48 46 46 46 47 47 47 46 44 43 41 41 40 40 41 41 43 41 41
60 58 58 57 59 61 60 57 53 48 44 41 39 38 37 38 43 45 47 47 48 48 49 46 45 45 45 45 44 42 42 42 41 39 39 40 40 40 39 38 38 39 37
55 53 52 53 51 50 50 52 54 51 49 46 43 38 34 34 37 39 40 43 47 50 48 46 45 44 43 42 41 43 42 41 39 38 38 39 38 37 37 36 35 36 34
51 48 46 44 44 43 43 43 42 41 46 50 44 35 24 24 31 35 36 39 43 44 43 41 39 38 38 38 39 40 39 39 38 37 36 36 35 35 34 35 35 34 33
49 48 46 44 43 42 41 40 40 39 37 41 42 38 32 31 35 34 34 35 40 40 39 39 39 38 37 37 37 37 38 38 37 36 35 34 34 34 33 34 34 34 33
52 50 49 45 44 44 45 46 46 38 34 34 33 31 31 33 33 33 36 40 40 40 39 39 39 38 37 37 36 36 36 36 36 35 34 34 34 33 33 33 33 33 32
51 52 50 47 44 42 39 38 39 39 37 28 31 32 33 33 33 35 40 41 39 40 39 38 38 37 36 36 36 36 36 35 34 34 33 33 33 32 32 32 33 33 32
41 45 51 50 44 38 36 33 32 33 31 28 29 31 33 34 35 39 40 39 38 39 39 38 37 37 37 37 36 36 35 34 33 32 32 32 32 31 31 32 32 33 32
37 39 41 46 45 39 33 28 30 26 24 24 25 27 31 33 38 38 37 38 38 38 38 38 38 37 38 37 36 35 34 32 31 31 31 32 32 32 31 31 32 31 31
35 37 37 41 44 41 38 31 32 30 22 22 23 28 32 34 37 37 37 38 38 38 38 38 38 37 37 36 36 35 33 31 31 31 31 31 31 30 31 32 32 32 32
38 35 33 33 35 37 38 36 37 35 33 25 27 32 33 35 38 37 37 38 39 38 38 39 38 37 36 36 36 35 33 32 32 32 31 31 32 31 31 31 32 32 32
41 38 34 32 33 33 35 35 35 38 36 36 35 35 34 34 36 39 38 38 39 38 39 40 38 37 37 36 35 35 33 33 33 33 32 31 31 30 31 31 32 32 32
41 40 39 35 32 32 33 34 34 34 35 37 37 37 35 34 34 38 39 39 38 38 39 38 38 37 37 36 36 35 35 35 35 34 33 31 30 31 31 31 31 32 33
42 40 38 36 34 32 31 32 35 34 35 34 35 33 31 30 27 33 39 38 38 38 38 38 38 37 37 36 36 36 35 35 35 34 34 31 30 31 31 31 31 32 32
45 42 40 38 37 36 34 32 32 34 35 34 35 36 35 31 29 29 35 38 38 38 38 38 38 38 37 37 36 36 35 34 35 34 33 32 31 31 31 30 31 32 32
Wind_Speed
19 18 17 17 14 12 12 12 11 9 8 11 13 12 11 9 7 7 8 7 6 6 4 4 5 4 4 4 3 3 3 5 4 3 2 3 4 10 13 12 14 14 14
21 18 19 16 14 15 14 12 11 13 10 10 10 11 10 9 9 9 10 8 7 7 7 6 6 4 4 6 5 5 4 3 2 2 2 3 2 10 10 15 14 12 13
19 20 19 18 16 16 15 13 12 13 12 10 12 13 11 12 12 11 11 10 8 7 5 5 6 5 4 6 4 2 2 1 0 1 2 1 2 8 8 9 13 13 12
21 20 20 19 18 17 14 13 11 11 12 11 11 10 9 9 9 8 9 9 7 4 3 3 2 3 5 6 4 3 3 2 2 1 1 2 1 3 4 9 13 6 13
20 21 21 16 13 11 12 13 13 12 13 10 7 6 5 5 2 4 7 10 11 9 6 6 5 4 4 1 4 4 3 1 2 2 2 2 3 5 6 6 5 6 6
20 16 13 13 11 6 3 2 1 5 10 11 9 8 8 6 4 3 5 5 9 11 9 5 5 2 4 7 10 7 3 2 2 2 3 4 5 4 4 4 5 5 5
17 15 14 14 13 10 8 5 5 6 4 8 11 11 9 5 3 2 3 4 6 7 9 6 4 2 3 10 12 14 14 14 10 3 3 3 3 5 2 5 7 6 7
13 17 14 10 9 9 5 2 3 4 9 11 10 8 7 4 1 2 8 5 7 7 8 8 7 5 5 8 8 11 11 11 11 14 16 13 11 8 8 4 6 3 6
17 11 9 10 9 7 6 5 5 9 7 8 7 6 3 1 7 15 14 14 13 9 8 6 6 7 7 9 12 14 18 19 21 24 23 22 27 25 19 10 14 10 7
16 12 12 12 12 9 9 8 7 9 9 7 9 8 5 3 7 16 18 16 15 11 7 5 7 5 8 8 11 16 19 13 13 15 14 18 19 20 23 18 12 13 6
16 17 18 15 16 15 11 12 11 11 11 10 8 9 9 8 11 16 17 14 16 12 9 5 6 11 14 15 12 12 13 12 14 14 14 14 16 17 17 17 17 14 9
16 13 12 13 13 15 15 12 10 11 11 8 9 10 9 11 12 13 18 17 14 14 12 9 12 21 21 20 19 18 16 15 13 16 16 16 16 15 15 15 17 17 15
15 14 13 13 13 12 14 14 12 10 12 12 11 10 9 8 11 16 16 14 10 11 14 20 20 22 20 20 18 19 16 14 14 16 15 14 11 11 13 11 12 12 14
16 13 12 16 15 13 11 8 11 12 10 10 9 9 7 6 6 6 7 11 13 13 18 13 17 20 19 13 15 16 15 14 15 16 15 11 10 12 15 12 12 10 11
15 14 13 12 14 15 13 8 6 3 1 9 10 11 11 6 4 3 4 7 11 12 18 12 13 13 16 16 15 14 13 12 16 15 15 14 14 13 14 12 12 10 13
15 13 13 13 11 12 14 13 14 12 12 10 10 8 5 11 7 3 3 7 12 11 12 14 14 14 16 15 16 14 13 15 14 13 13 13 14 13 12 11 10 13 12
11 11 11 12 12 11 10 10 12 9 14 10 10 11 8 11 12 9 6 12 12 11 15 13 15 15 15 14 14 14 15 12 11 12 12 12 11 11 11 11 10 10 11
6 8 7 8 8 7 7 6 7 9 8 5 4 3 8 7 10 13 18 11 13 9 12 14 14 13 13 14 14 14 13 11 12 12 12 11 11 10 11 11 10 11 11
7 7 8 6 7 8 7 7 9 7 6 6 4 1 2 3 5 5 12 18 19 13 11 12 12 13 13 13 13 13 13 12 11 12 11 11 10 11 11 11 10 10 9
5 3 4 9 10 9 8 8 9 8 9 10 10 10 8 6 6 8 10 12 14 15 16 16 13 12 13 15 14 13 13 11 10 10 10 10 8 8 9 7 7 6 6
4 5 5 7 10 11 11 11 9 9 9 9 6 7 10 11 11 14 16 14 14 13 13 13 13 12 12 12 12 11 11 10 9 9 9 8 6 6 5 5 5 5 6
3 4 4 6 6 6 9 9 9 12 10 10 9 8 10 8 10 12 14 15 14 15 14 15 16 15 15 15 14 13 13 11 8 7 7 6 5 4 3 2 1 3 6
5 4 3 4 5 6 5 4 5 10 13 13 11 11 12 13 12 12 15 14 14 14 15 15 16 15 14 14 14 14 14 13 13 11 8 7 5 4 3 2 2 4 8
10 8 6 7 5 6 7 7 8 8 9 10 11 13 15 15 13 12 15 16 15 15 15 15 16 17 16 15 14 14 14 12 12 14 11 9 7 6 4 2 3 5 7
11 11 8 9 9 8 7 8 6 9 9 8 11 13 14 14 14 14 15 16 17 17 17 17 16 18 20 20 19 19 19 18 16 15 12 8 6 4 3 3 4 5 7
12 12 11 8 8 9 10 9 10 9 11 12 13 13 14 16 18 17 17 18 17 17 17 17 19 22 22 22 23 24 23 22 21 19 13 9 8 6 6 6 6 7 9
Wind_Direction
200 199 199 207 203 201 199 207 209 219 229 221 209 207 209 220 225 217 215 228 240 240 231 228 231 207 213 196 184 160 143 181 213 271 256 318 6 11 6 16 10 5 7
197 200 202 207 206 204 212 212 207 207 210 214 209 219 220 220 219 221 221 221 231 239 230 231 236 219 221 198 199 186 197 200 187 275 297 326 356 8 12 10 1 7 9
185 195 201 206 212 219 219 213 203 218 223 219 220 224 223 229 209 211 221 226 233 238 255 254 265 266 243 209 213 186 145 147 192 221 307 310 341 10 359 8 10 14 20
185 192 201 206 212 218 224 226 221 213 227 234 217 221 223 217 214 217 218 220 213 209 198 188 220 235 220 196 189 178 195 203 179 114 66 33 8 319 20 13 8 7 28
186 193 201 200 206 209 216 217 224 215 216 228 225 205 205 188 178 240 222 222 188 162 141 125 108 103 88 183 183 203 206 261 15 39 70 37 11 11 17 343 347 356 61
181 185 176 173 159 164 205 203 304 269 221 191 190 181 174 181 179 213 271 216 182 166 160 120 90 358 63 73 89 100 147 146 130 107 48 11 6 2 342 346 359 19 17
154 152 153 152 150 161 186 180 181 213 179 177 178 176 174 184 277 249 169 207 171 173 157 136 105 68 96 119 92 78 71 65 64 81 75 52 51 357 341 31 18 50 81
178 173 162 167 171 165 161 127 66 164 184 176 171 169 162 154 270 174 141 162 128 126 142 137 129 110 100 125 109 80 73 60 70 85 85 69 56 41 52 24 8 42 105
213 180 162 156 151 153 117 88 106 111 141 153 134 119 130 331 88 119 112 109 103 92 86 84 104 103 93 121 116 106 92 83 76 80 74 63 54 50 42 52 33 41 38
191 179 144 136 135 126 125 124 98 122 111 91 108 97 79 90 118 128 121 124 116 111 72 60 56 86 101 100 116 120 108 97 90 69 52 51 50 44 42 49 50 66 54
145 144 141 147 140 132 120 113 119 118 118 124 106 86 73 65 112 115 122 131 138 131 128 104 84 92 87 86 92 101 105 97 75 71 61 49 46 46 39 41 52 65 77
99 103 123 144 140 137 140 133 129 131 126 120 108 87 61 60 61 115 122 126 136 142 121 102 92 89 84 84 86 87 90 89 85 79 67 59 53 45 39 45 63 64 61
103 106 104 94 102 123 138 139 140 140 141 138 127 114 94 66 76 85 104 116 135 132 123 118 108 91 78 70 66 73 74 77 85 81 80 73 60 52 47 46 49 61 55
106 101 99 103 92 80 88 112 150 157 161 154 142 140 125 104 85 62 80 106 109 117 120 106 99 92 86 75 66 64 71 80 90 93 87 76 64 53 49 37 40 28 46
107 108 101 100 102 98 80 62 96 56 177 159 157 152 140 146 159 119 116 119 115 117 118 113 103 100 96 90 82 79 79 79 83 78 79 77 66 60 51 37 42 45 54
102 98 100 101 94 103 106 96 52 52 61 84 124 134 86 109 116 67 103 148 145 132 117 121 113 111 111 109 104 92 78 83 80 81 78 74 72 65 60 44 40 46 44
119 129 132 127 129 133 128 133 126 63 59 67 98 115 125 143 125 83 73 103 109 108 121 121 122 123 121 114 109 106 102 89 88 83 82 80 80 73 56 48 42 45 39
119 143 143 148 148 150 158 147 139 143 136 108 14 93 125 134 129 127 128 107 99 83 122 130 127 125 120 118 115 113 106 100 93 89 81 75 76 79 68 55 48 42 36
125 165 188 174 157 150 151 163 164 164 173 161 156 74 83 66 48 104 145 145 141 140 136 129 135 130 129 129 125 119 117 115 112 104 99 92 85 81 73 65 57 47 43
83 126 166 183 170 155 151 158 163 165 166 175 177 177 163 149 149 155 144 137 141 153 157 148 145 139 142 139 137 134 129 129 122 114 114 101 94 84 78 74 62 45 16
109 89 121 140 176 182 182 185 181 181 183 177 183 195 183 161 154 155 160 164 161 160 153 142 141 150 149 154 151 146 143 145 145 138 125 119 122 100 90 71 43 7 343
170 140 125 140 138 155 192 200 210 204 202 191 193 200 193 180 166 169 179 176 170 162 161 162 166 167 166 168 166 168 171 169 164 150 140 142 140 125 99 81 344 333 342
203 200 182 175 159 157 152 175 188 205 212 215 202 197 198 201 195 197 193 185 176 173 171 171 171 177 181 182 184 179 176 190 192 179 169 169 171 177 191 226 286 345 355
205 207 216 221 215 202 190 189 199 201 208 220 216 214 214 217 217 206 194 183 183 184 183 182 184 186 188 192 196 198 203 200 190 192 183 179 184 190 204 250 304 321 323
207 210 215 215 218 225 228 223 215 201 205 217 227 223 222 216 224 221 204 195 189 190 195 193 196 200 199 200 204 209 214 210 202 200 196 188 187 197 229 260 281 291 296
212 217 220 225 241 241 238 241 242 236 231 228 227 226 221 217 218 219 212 203 202 203 202 200 205 207 208 211 214 216 216 213 208 197 190 197 203 220 232 248 264 274 292